Vertical_Velocity
7 -1 -15 -12 4 6 2 8 -4 -7 -3 -5 -4 -1 -15 -6 7 -2 -7 11 2 -2 2 2 3 3 12 -1 -3 -0 4 -1 -1 3 2 1 2 1 -2 -4 -2 -2 -1 1
6 -26 -9 -2 7 8 7 2 -9 -17 -27 54 -5 -16 2 3 -12 -0 -6 6 0 -5 -6 1 -2 5 10 3 3 -1 5 -2 2 0 1 2 -2 4 0 -4 -0 1 -0 4
-15 7 6 7 1 9 -5 0 -9 -7 10 12 2 -13 -12 -14 6 7 8 5 7 -2 -2 -7 -2 1 5 5 3 -1 -2 2 -0 -2 -1 2 4 2 1 -0 1 2 3 2
-3 14 7 0 -9 12 1 5 -4 4 11 -9 40 -17 -5 -9 -10 9 5 2 2 2 -1 -2 0 -10 1 1 3 4 2 5 1 1 1 3 5 3 3 1 0 0 -0 -1
-28 -15 -5 -16 -4 -5 -5 2 -0 2 7 20 -15 21 -28 -8 -10 -12 -4 9 3 -1 -1 -0 -8 4 -5 3 2 5 5 4 2 -0 0 2 0 -0 -1 -1 -2 -0 1 3
7 17 -4 0 2 -1 21 5 6 -2 9 19 -3 15 -26 -15 -16 -12 -3 8 2 2 3 -6 2 -0 -12 1 5 2 -0 -0 3 1 2 1 1 0 -0 1 3 2 2 2
45 -28 -4 2 7 23 21 20 4 6 12 -11 -9 10 -21 -1 -7 -14 -6 6 3 4 2 8 0 -3 -1 7 7 4 -0 -2 -1 -1 1 -0 -1 -2 -4 -5 -5 -7 -4 -3
-6 9 13 6 -8 -19 -19 -12 -11 -8 -2 -10 -2 -12 -21 -16 -6 -17 1 5 13 3 -1 3 9 3 -2 5 1 3 4 -1 -1 -1 -2 -2 -1 0 1 3 3 4 2 1
-1 -6 2 -7 8 3 -5 -16 9 7 5 5 -9 1 -16 -26 -7 -1 -1 2 -2 -4 -1 -5 5 4 3 0 4 5 1 -1 -1 1 3 2 0 -1 -1 0 -2 -3 -2 1
-13 5 1 -0 16 7 -5 21 14 5 3 1 -3 -1 -13 -4 -8 -4 -5 -3 -1 -1 -4 -4 5 6 3 7 9 6 4 1 1 2 2 1 2 1 1 2 1 0 0 -3
32 25 3 29 -6 -22 6 -2 14 15 -2 -5 -1 -24 -15 -8 -2 0 -2 -7 1 -1 -4 1 2 10 8 3 4 -10 1 2 1 1 1 2 2 2 2 -0 1 1 1 -2
-39 14 -4 -12 0 10 3 -4 4 2 -11 -0 -2 -71 -3 -3 -1 5 4 2 -0 9 12 5 9 5 4 1 0 -4 -3 -2 -1 -0 1 0 2 3 0 -0 1 -2 -3 -3
-25 -13 5 4 16 -1 -6 1 1 18 6 -20 3 -44 -15 5 -3 2 -6 -8 -2 1 1 6 1 3 5 6 4 4 -2 2 2 -1 -1 2 4 -1 -2 0 -2 -4 -3 -2
55 13 -31 -30 -77 30 -8 -3 3 -0 9 -7 -48 17 -3 -7 -8 -6 -6 -5 -0 3 -0 4 3 2 2 1 1 -2 -0 -1 -3 -2 -0 -2 -3 -2 -4 -3 -7 -5 -5 -2
16 -10 7 -22 12 10 -19 3 5 -8 -25 -18 -8 -22 -11 -7 -6 -7 -2 -3 -5 -3 -1 1 -8 -3 1 2 3 1 -0 -1 -1 1 2 1 -1 -1 -0 -3 -2 -1 -1 -1
7 -14 7 -12 13 4 -1 15 7 -6 24 2 13 -19 3 9 13 9 -1 -3 -5 -2 -1 -0 6 3 1 1 -0 1 -2 2 3 3 -2 -2 -4 -2 -5 -5 -5 -2 -2 -2
21 -5 19 -28 9 22 35 -45 -6 11 25 -20 -27 -14 -9 -13 -20 -10 -3 -5 -8 -3 -8 -3 -4 -1 -3 -3 0 -2 -1 1 -0 -2 -4 -5 -3 -2 -5 -5 -4 -1 -5 -3
-1 45 10 -20 45 21 -35 2 -9 -12 12 -6 5 16 -14 -10 -3 -5 -1 -7 -8 -5 -0 -1 1 0 -6 -1 -1 -2 2 1 -1 -3 -4 -0 -4 -3 -1 -2 -1 -4 -5 -1
3 17 24 -3 -4 -2 -1 -28 -43 -41 -52 29 -32 0 11 18 12 4 8 -13 -3 6 -1 0 2 2 -1 2 4 4 0 -0 -4 -0 2 1 -9 -3 -4 -4 -4 -2 -2 -4
-0 3 28 23 -0 -7 -61 -4 21 57 -8 -27 4 -11 7 7 -11 -25 -16 2 8 2 -3 0 -4 -3 -1 -0 0 -1 -3 -4 -1 -3 -1 -3 -1 -3 -1 -3 -1 -3 -6 -6
14 7 -4 5 0 -1 -15 3 32 22 -151 29 -10 15 11 -39 -70 72 9 2 2 -3 -3 2 -0 -4 1 2 5 6 2 -2 -3 -6 -3 -6 -3 -1 -2 -4 -2 -5 -6 -3
3 13 3 13 7 -6 5 27 -59 -71 26 9 -6 5 -19 21 -8 3 5 -7 -4 -8 1 -1 -1 1 -1 1 3 -3 0 2 -4 -9 0 2 -5 -1 -6 -5 -4 -4 -1 -2
12 -18 -1 1 -34 -1 1 -10 11 -16 9 -7 6 -4 2 -8 -10 -2 -4 1 -3 3 -1 4 1 -1 0 3 1 -2 2 -5 -9 1 -1 2 2 -3 -0 -3 -5 -3 -1 1
2 4 15 18 10 25 14 -2 -3 -1 1 14 -2 -22 -15 3 7 13 11 6 4 2 1 3 2 -1 4 6 4 2 -4 -1 -1 -2 3 2 5 -6 0 -2 -5 -1 -1 -2
20 18 -9 -34 -2 -17 3 -3 12 6 7 2 -2 5 -10 0 7 8 1 0 4 5 2 3 3 5 7 2 0 -2 -7 1 3 -1 -5 1 3 2 -2 -3 -0 -1 -0 -5
-1 -26 5 -48 2 13 -5 -11 0 8 7 4 -2 -13 2 8 -4 -1 6 5 6 4 2 3 4 -1 -6 -3 2 2 4 -0 -0 -1 -0 4 -6 -3 -1 2 -2 1 -1 -3
Height
3079 3080 3068 3078 3082 3085 3089 3089 3089 3091 3093 3091 3088 3087 3087 3088 3090 3091 3092 3093 3096 3101 3104 3107 3108 3109 3111 3113 3118 3119 3119 3122 3123 3124 3126 3125 3127 3127 3128 3129 3129 3131 3131 3132
3071 3048 3065 3076 3080 3080 3081 3082 3084 3086 3087 3088 3083 3080 3081 3079 3080 3084 3086 3085 3089 3095 3098 3101 3102 3103 3106 3108 3110 3112 3113 3115 3117 3119 3120 3120 3121 3122 3122 3123 3124 3125 3126 3127
3049 3048 3063 3066 3069 3072 3072 3074 3080 3081 3081 3079 3078 3070 3073 3075 3074 3078 3081 3082 3084 3088 3093 3096 3097 3098 3101 3103 3103 3104 3107 3109 3111 3113 3114 3115 3115 3116 3117 3117 3119 3119 3120 3121
3041 3046 3053 3056 3053 3064 3060 3070 3076 3077 3081 3072 3072 3060 3063 3068 3069 3071 3074 3075 3077 3081 3086 3090 3093 3095 3096 3097 3099 3100 3104 3105 3105 3107 3108 3109 3109 3109 3110 3110 3112 3114 3115 3115
3014 3029 3039 3038 3035 3053 3048 3065 3069 3073 3073 3071 3059 3061 3052 3058 3058 3062 3066 3069 3072 3074 3079 3083 3086 3087 3088 3089 3092 3094 3097 3098 3099 3100 3101 3101 3101 3102 3104 3105 3107 3108 3109 3109
3016 3028 3030 3024 3039 3041 3055 3061 3064 3065 3067 3053 3054 3057 3035 3044 3048 3053 3058 3062 3063 3066 3070 3074 3077 3080 3082 3083 3084 3085 3087 3090 3091 3092 3094 3095 3096 3097 3099 3100 3102 3103 3103 3103
3013 3008 3019 3024 3028 3037 3045 3054 3058 3056 3053 3025 3045 3044 3025 3031 3035 3040 3048 3055 3054 3057 3060 3062 3066 3070 3073 3075 3078 3079 3079 3081 3083 3085 3087 3089 3090 3091 3093 3094 3095 3095 3095 3094
3001 2998 2996 3007 3013 3023 3030 3039 3036 3036 3033 3032 3040 3012 3015 3023 3032 3034 3039 3045 3046 3046 3051 3055 3058 3062 3066 3068 3073 3075 3074 3074 3076 3079 3082 3084 3086 3087 3089 3090 3091 3091 3090 3089
2985 2985 2986 2989 3007 3016 3016 3025 3015 3028 3027 3028 3015 3008 3013 3019 3022 3025 3032 3033 3034 3037 3042 3047 3051 3055 3058 3061 3066 3067 3068 3070 3071 3073 3075 3078 3081 3082 3083 3084 3083 3082 3081 3081
2975 2980 2977 2984 2999 3006 3006 3012 3020 3021 3017 3016 3002 3002 3003 3004 3010 3017 3024 3025 3026 3027 3032 3037 3042 3047 3051 3054 3057 3060 3064 3065 3066 3068 3070 3072 3074 3076 3076 3076 3075 3074 3072 3070
2970 2978 2972 2975 2975 2978 2995 2998 3002 3006 3004 3002 3003 2989 2994 3001 3006 3009 3012 3016 3017 3019 3023 3027 3032 3037 3042 3047 3052 3057 3058 3059 3060 3062 3064 3065 3067 3068 3068 3068 3067 3065 3062 3061
2949 2966 2966 2964 2971 2975 2977 2981 2988 2988 2988 2992 2999 2970 2989 2993 2998 3003 3006 3008 3012 3013 3015 3020 3025 3032 3037 3041 3045 3049 3050 3051 3053 3055 3058 3060 3061 3060 3060 3060 3059 3057 3055 3053
2944 2951 2954 2964 2966 2964 2964 2972 2977 2980 2985 2978 2993 2950 2985 2988 2992 2995 3000 3004 3006 3008 3010 3014 3019 3025 3029 3033 3038 3041 3043 3043 3044 3047 3051 3052 3052 3052 3052 3050 3048 3047 3045 3042
2927 2931 2932 2931 2923 2939 2953 2955 2961 2970 2978 2963 2963 2969 2976 2982 2987 2989 2995 2998 3001 3003 3007 3011 3016 3022 3025 3028 3030 3032 3033 3035 3038 3041 3043 3043 3043 3042 3040 3038 3037 3036 3034 3032
2922 2919 2924 2920 2934 2937 2938 2942 2946 2954 2940 2961 2936 2963 2969 2975 2980 2981 2986 2990 2995 2999 3004 3011 3013 3016 3018 3020 3021 3022 3026 3029 3032 3034 3035 3034 3032 3031 3030 3029 3027 3025 3024 3022
2909 2906 2912 2910 2917 2926 2928 2932 2936 2937 2939 2946 2953 2952 2960 2971 2976 2974 2975 2981 2987 2990 2997 3002 3004 3007 3010 3013 3014 3015 3019 3022 3024 3026 3026 3026 3026 3025 3023 3021 3019 3017 3014 3013
2894 2896 2899 2898 2905 2911 2914 2921 2917 2916 2928 2925 2941 2916 2948 2955 2960 2963 2965 2969 2978 2984 2988 2992 2995 3000 3003 3005 3007 3011 3015 3016 3017 3018 3019 3018 3017 3016 3014 3011 3010 3008 3005 3003
2875 2878 2883 2883 2893 2886 2887 2899 2909 2912 2907 2913 2917 2930 2938 2941 2948 2950 2953 2960 2968 2975 2978 2983 2987 2990 2994 2997 2999 3005 3008 3009 3011 3011 3010 3008 3007 3006 3003 3001 3000 2999 2998 2996
2863 2869 2864 2863 2864 2869 2878 2887 2892 2894 2889 2902 2908 2918 2921 2933 2944 2939 2942 2951 2958 2962 2969 2973 2978 2982 2986 2988 2993 2997 3000 3003 3005 3004 3001 2998 2998 2996 2994 2994 2994 2993 2991 2989
2845 2850 2856 2842 2847 2853 2861 2866 2876 2891 2893 2895 2894 2904 2912 2922 2923 2916 2930 2939 2946 2954 2957 2962 2967 2973 2977 2979 2983 2986 2989 2994 2997 2997 2993 2992 2990 2987 2986 2986 2986 2986 2985 2982
2838 2830 2832 2831 2834 2844 2852 2860 2872 2883 2879 2879 2882 2887 2897 2902 2898 2912 2921 2928 2935 2940 2947 2954 2959 2964 2969 2972 2975 2977 2979 2983 2986 2989 2985 2982 2981 2980 2980 2980 2980 2980 2978 2976
2827 2826 2823 2830 2827 2833 2842 2849 2854 2853 2860 2865 2877 2880 2885 2893 2900 2908 2914 2920 2925 2930 2938 2944 2951 2955 2959 2964 2967 2968 2970 2974 2975 2976 2976 2975 2975 2975 2974 2975 2974 2974 2972 2970
2822 2824 2821 2824 2825 2831 2831 2838 2849 2856 2856 2863 2869 2873 2880 2888 2894 2899 2906 2913 2919 2925 2930 2936 2942 2948 2952 2955 2958 2961 2963 2963 2964 2968 2969 2968 2969 2969 2968 2967 2967 2967 2966 2964
2814 2824 2819 2824 2818 2827 2821 2833 2842 2847 2854 2858 2863 2870 2876 2880 2888 2894 2901 2906 2912 2917 2923 2931 2936 2941 2944 2948 2949 2952 2952 2955 2957 2960 2961 2962 2963 2962 2961 2959 2960 2960 2959 2958
2812 2813 2812 2815 2815 2815 2822 2829 2837 2841 2845 2853 2861 2865 2873 2878 2883 2890 2896 2903 2908 2913 2919 2925 2930 2936 2939 2942 2943 2942 2945 2948 2950 2952 2955 2956 2957 2957 2955 2954 2954 2954 2953 2952
2805 2810 2805 2803 2813 2814 2816 2825 2833 2837 2842 2847 2854 2860 2868 2872 2878 2885 2890 2896 2902 2908 2915 2921 2924 2928 2932 2935 2937 2937 2939 2942 2944 2944 2948 2950 2951 2950 2950 2949 2947 2947 2946 2945